Wind_Speed
11 11 11 11 11 12 12 11 11 11 10 9 8 8 7 7 8 9 8 8 8 8 8 7 7 7 6 6 6 5 5 4 4 4 4 4 4 4 4 3 2 3 3
12 11 11 11 11 12 12 11 11 11 10 9 9 8 8 8 8 8 8 7 7 7 8 7 6 6 6 6 5 5 4 4 4 4 3 3 3 3 3 3 2 2 2
12 12 12 12 11 12 12 12 12 11 11 10 10 9 9 9 8 7 6 6 6 6 6 6 6 5 5 5 5 4 4 4 3 2 2 2 2 2 2 2 2 2 2
12 12 12 13 12 12 12 12 12 12 11 10 10 9 9 8 8 7 6 5 5 5 5 5 5 5 5 5 4 4 3 3 3 2 1 1 2 2 1 1 1 1 1
12 12 12 12 13 13 13 12 12 11 11 11 10 9 9 8 7 6 5 4 4 5 5 5 5 4 4 4 4 3 2 2 2 1 1 1 2 2 2 2 1 1 1
12 12 12 12 12 12 13 12 12 11 11 10 10 9 8 8 7 5 5 4 4 3 3 4 4 4 4 4 3 2 2 1 1 1 1 1 2 2 2 2 1 1 1
12 12 11 11 12 12 12 12 11 11 10 9 9 9 8 7 6 5 4 4 4 3 4 4 4 4 4 4 3 3 2 1 1 1 1 2 2 2 2 2 2 1 1
12 12 12 12 12 12 12 11 11 10 10 9 8 7 7 7 6 5 4 3 3 4 4 4 4 4 3 3 3 3 3 2 2 2 2 2 3 3 3 3 3 2 2
12 13 13 13 12 12 11 11 10 10 9 9 8 7 6 6 5 5 4 4 3 2 2 3 3 3 2 3 3 3 3 3 3 3 4 3 3 3 3 3 3 3 3
12 13 13 14 13 13 12 12 11 10 9 9 8 7 7 6 5 4 4 4 3 3 3 2 3 2 2 3 3 2 3 3 4 4 5 4 4 4 4 4 4 3 3
12 13 13 13 13 13 12 12 11 10 10 9 8 8 7 7 6 5 4 4 2 2 2 2 2 2 3 3 3 3 3 4 4 4 4 4 5 5 5 6 5 5 5
12 12 12 12 12 11 11 10 10 10 9 9 8 7 7 6 5 5 4 3 2 1 1 2 2 2 2 3 3 4 4 4 5 5 5 6 6 7 7 7 7 6 6
12 12 11 11 11 11 10 10 10 9 9 8 8 7 6 5 5 4 4 3 2 2 0 1 2 2 3 4 4 5 6 6 6 6 6 7 7 7 7 7 7 8 8
11 11 11 11 11 11 10 9 8 8 8 8 7 7 6 5 5 4 3 2 2 2 1 1 2 3 4 4 5 5 6 6 6 7 7 7 8 8 8 8 9 9 9
10 10 10 10 10 10 10 9 8 7 7 7 7 7 6 5 5 4 3 2 2 2 2 2 2 3 4 5 5 5 6 6 7 8 8 8 9 10 10 11 11 10 10
10 10 9 9 9 10 9 8 8 7 7 7 6 6 6 5 5 4 3 2 2 2 2 2 3 3 4 4 5 5 6 7 8 8 8 9 9 10 11 11 10 11 11
9 9 9 9 8 8 8 8 7 8 8 7 6 6 6 5 5 5 5 4 4 3 4 4 4 4 4 5 6 6 7 8 8 9 9 9 9 10 11 12 11 11 12
8 8 8 8 8 8 7 7 7 7 7 7 7 7 7 6 6 6 6 5 5 5 5 5 4 5 5 6 7 7 8 8 9 9 10 10 11 11 12 12 13 13 13
7 7 8 8 8 7 7 6 6 6 6 6 6 6 6 7 7 7 7 6 6 6 6 6 6 6 6 7 8 8 9 9 10 10 11 12 13 13 13 13 14 14 14
7 7 7 7 7 7 6 6 5 5 5 5 5 6 6 6 7 7 7 7 7 7 7 7 7 7 8 8 8 9 10 11 11 12 13 13 14 14 15 15 15 15 15
6 6 6 7 7 6 6 5 5 5 5 5 6 6 6 7 8 8 8 8 8 8 7 8 8 8 8 9 9 10 10 11 12 12 13 13 13 14 14 15 15 15 16
5 5 5 6 6 6 6 5 4 4 5 5 6 6 7 7 8 9 10 10 9 9 8 9 9 8 9 9 10 11 11 11 12 13 13 14 13 14 14 15 16 16 17
4 5 5 5 5 5 5 5 5 5 5 6 6 7 7 8 8 9 10 11 11 10 9 9 9 10 10 10 11 11 12 13 13 14 14 15 15 15 15 16 17 18 18
5 5 5 4 4 4 4 5 5 6 6 6 7 8 8 9 9 9 10 11 11 11 10 10 11 11 11 11 12 12 13 14 14 14 14 15 15 15 16 17 18 19 19
5 6 6 6 5 5 5 6 6 6 6 7 8 8 9 9 9 10 11 11 11 11 11 11 12 12 13 13 14 14 15 15 16 16 16 16 16 16 16 17 18 19 19
7 7 7 8 7 6 7 7 7 8 8 9 9 10 10 11 11 12 12 12 12 12 13 13 13 13 14 15 15 16 16 16 17 17 17 17 17 18 18 18 18 19 19
Wind_Direction
74 74 75 78 80 82 82 80 82 84 86 90 97 99 102 111 124 126 118 121 119 121 129 128 126 123 123 122 117 113 110 114 108 115 115 121 124 122 120 124 129 122 116
72 74 76 78 79 82 82 82 82 83 87 89 91 98 100 114 122 120 119 124 125 128 130 127 126 122 120 120 120 119 115 114 103 105 114 119 119 119 118 122 127 129 129
74 76 78 79 79 81 79 83 82 82 86 87 87 93 98 107 114 112 115 121 132 137 139 136 132 128 124 123 123 122 120 122 116 112 117 124 135 132 127 134 134 137 137
73 74 78 80 80 80 81 82 83 83 84 85 85 88 94 103 107 104 111 123 134 143 145 142 141 137 136 135 130 124 118 122 127 129 130 144 163 158 155 147 138 138 146
72 73 76 77 79 79 81 81 84 84 82 81 80 83 85 92 98 102 113 121 131 142 151 151 148 150 148 145 142 137 129 133 146 140 134 180 187 180 164 160 157 140 141
71 73 73 76 79 81 81 81 83 83 82 81 80 79 81 83 87 94 105 117 129 144 162 159 156 160 162 162 164 166 167 176 185 177 176 200 191 191 184 184 192 192 179
69 72 75 76 80 81 80 79 82 81 80 80 80 78 77 80 85 88 98 111 125 139 152 163 162 164 169 177 186 191 204 219 227 220 227 231 230 229 228 230 236 223 209
71 74 75 77 78 80 79 77 78 80 79 77 76 74 72 72 72 79 92 108 119 128 144 160 172 178 183 189 200 210 218 224 229 232 241 244 242 244 241 239 238 241 236
75 75 76 76 76 76 75 76 76 76 74 72 69 67 67 67 65 68 66 79 95 112 148 170 179 190 197 197 205 223 223 225 235 242 242 240 239 242 246 251 245 240 238
77 76 75 73 75 75 73 73 73 71 69 70 68 67 69 67 64 63 63 76 91 107 132 165 181 199 212 204 208 225 230 231 239 243 243 238 238 237 248 255 251 242 246
78 78 76 74 74 73 70 69 69 68 68 68 71 70 70 68 64 65 66 72 91 108 131 163 203 213 214 216 220 223 232 229 234 242 250 245 245 246 250 254 254 247 250
79 79 77 73 71 69 68 68 68 67 65 64 65 64 65 66 63 59 62 70 74 99 179 194 207 207 227 236 227 225 233 233 231 250 262 256 250 250 252 254 253 253 254
79 78 76 70 68 68 69 67 65 63 61 60 59 60 60 59 55 45 43 44 47 34 275 209 215 218 232 242 239 238 242 250 245 251 259 259 258 257 256 255 258 257 255
74 72 72 70 68 67 65 60 59 57 55 52 52 50 50 52 47 35 30 30 25 27 10 277 254 247 244 251 253 250 254 255 260 257 260 259 259 260 262 259 257 255 256
65 66 69 67 63 62 61 57 56 52 49 47 47 50 53 49 39 22 8 14 7 358 336 324 287 263 258 253 254 258 258 262 266 268 268 268 262 260 261 265 261 257 257
60 63 64 62 59 57 55 55 54 50 48 43 44 49 48 45 42 31 23 14 358 348 336 315 292 273 269 267 268 269 266 265 268 269 273 270 266 264 263 265 265 259 259
56 56 53 53 52 52 51 49 46 47 47 45 38 33 30 28 29 22 7 1 356 346 334 322 307 291 284 279 275 275 277 274 270 270 270 270 268 269 268 263 265 262 260
55 53 49 47 47 47 46 42 40 45 46 44 38 32 29 28 24 14 6 2 359 352 342 330 313 299 292 288 280 275 275 274 271 267 267 269 268 270 270 265 263 262 263
50 49 45 41 41 41 39 37 37 38 35 33 30 26 23 18 13 9 3 358 352 341 331 327 315 305 297 293 288 282 278 276 273 271 270 269 267 267 268 267 262 263 265
40 38 36 31 29 31 36 36 34 28 21 14 9 7 5 4 2 358 352 345 338 330 321 316 313 306 297 297 293 288 284 280 277 275 275 273 270 268 266 265 264 263 263
27 26 28 22 17 21 24 31 28 24 17 8 359 356 354 354 355 353 348 342 334 328 322 316 311 306 299 294 293 289 286 285 282 278 276 276 274 269 267 266 268 264 262
12 8 8 12 12 16 16 18 16 11 10 7 0 354 351 350 349 349 345 342 337 328 320 316 310 305 301 296 292 287 280 279 279 280 277 275 274 272 270 268 269 268 266
357 345 344 351 357 3 4 0 358 355 352 352 349 343 339 337 338 340 340 340 336 332 322 316 310 306 302 297 294 287 281 279 279 281 281 277 275 273 273 271 270 270 270
332 328 322 318 326 333 337 341 340 342 342 336 338 338 333 333 332 328 332 333 331 331 324 313 310 305 301 298 294 291 285 280 279 280 280 279 277 276 274 270 270 270 269
308 311 307 295 297 303 308 317 318 322 327 328 326 325 324 325 326 324 324 324 324 324 321 313 308 305 302 297 295 293 289 280 278 279 280 280 279 277 275 273 271 270 270
295 297 299 293 291 293 295 301 308 313 313 313 312 312 315 320 322 320 317 316 316 316 318 318 312 305 303 301 297 294 291 284 280 279 280 281 281 278 276 275 271 270 271
Height
5879 5879 5878 5878 5878 5878 5878 5878 5878 5878 5878 5878 5879 5879 5880 5880 5881 5883 5884 5885 5887 5888 5889 5890 5891 5892 5893 5894 5895 5896 5897 5897 5898 5899 5899 5900 5901 5901 5902 5902 5903 5903 5903
5881 5880 5880 5879 5879 5879 5879 5879 5879 5879 5879 5880 5880 5880 5880 5881 5882 5884 5885 5886 5888 5889 5890 5891 5892 5893 5894 5895 5896 5897 5897 5898 5899 5899 5900 5901 5901 5902 5902 5903 5903 5904 5904
5882 5882 5881 5881 5880 5880 5880 5880 5881 5881 5881 5881 5881 5881 5882 5882 5883 5885 5886 5887 5888 5890 5891 5892 5893 5894 5895 5896 5897 5897 5898 5899 5899 5900 5900 5901 5901 5902 5902 5903 5903 5904 5904
5884 5883 5883 5882 5882 5881 5881 5882 5882 5882 5882 5883 5883 5883 5884 5884 5885 5886 5887 5888 5889 5890 5891 5892 5893 5894 5895 5896 5897 5898 5898 5899 5899 5900 5900 5901 5901 5902 5903 5903 5904 5904 5904
5886 5885 5884 5884 5883 5883 5883 5883 5884 5884 5884 5884 5885 5885 5885 5886 5886 5887 5888 5888 5889 5890 5891 5892 5893 5894 5895 5896 5897 5898 5899 5899 5899 5900 5900 5901 5901 5902 5902 5903 5903 5904 5904
5887 5887 5886 5886 5885 5885 5885 5885 5885 5885 5886 5886 5886 5887 5887 5887 5887 5888 5888 5889 5889 5890 5891 5892 5893 5894 5895 5896 5897 5898 5899 5899 5899 5900 5900 5900 5901 5901 5902 5902 5903 5904 5904
5889 5888 5888 5887 5887 5887 5887 5886 5886 5887 5887 5887 5888 5888 5888 5888 5889 5889 5889 5889 5890 5890 5891 5892 5893 5894 5895 5896 5897 5898 5898 5899 5899 5900 5900 5900 5901 5902 5902 5902 5903 5903 5904
5891 5890 5889 5889 5888 5888 5888 5888 5888 5888 5888 5888 5889 5889 5889 5889 5889 5889 5889 5890 5890 5890 5891 5892 5893 5894 5895 5896 5896 5897 5898 5898 5899 5899 5900 5900 5901 5901 5902 5902 5902 5903 5903
5892 5892 5891 5891 5890 5890 5890 5889 5889 5889 5889 5890 5890 5890 5890 5890 5890 5890 5890 5890 5890 5891 5891 5892 5893 5894 5894 5895 5896 5897 5897 5898 5898 5899 5899 5900 5900 5901 5901 5902 5902 5902 5903
5894 5893 5893 5892 5892 5892 5891 5891 5891 5891 5891 5891 5891 5891 5891 5891 5891 5891 5890 5890 5891 5891 5891 5892 5893 5894 5894 5895 5896 5896 5897 5897 5898 5898 5899 5899 5900 5900 5901 5901 5901 5902 5902
5895 5895 5895 5894 5894 5894 5893 5893 5893 5893 5892 5892 5892 5892 5892 5892 5891 5891 5891 5891 5891 5891 5891 5892 5892 5893 5894 5894 5895 5896 5896 5896 5897 5897 5898 5898 5899 5899 5900 5900 5901 5901 5901
5897 5897 5896 5896 5896 5895 5895 5895 5894 5894 5894 5894 5893 5893 5892 5892 5892 5892 5891 5891 5891 5891 5891 5891 5892 5892 5893 5893 5894 5895 5895 5896 5896 5896 5897 5897 5898 5898 5898 5899 5899 5900 5900
5899 5899 5898 5898 5897 5897 5896 5896 5896 5896 5895 5895 5894 5894 5893 5893 5892 5892 5891 5891 5891 5891 5891 5891 5891 5892 5892 5893 5893 5894 5894 5895 5895 5895 5895 5896 5896 5897 5897 5898 5898 5899 5899
5900 5900 5899 5899 5899 5898 5898 5897 5897 5896 5896 5895 5895 5894 5894 5893 5893 5892 5892 5891 5891 5891 5891 5890 5891 5891 5892 5892 5892 5893 5893 5893 5893 5893 5894 5894 5895 5895 5896 5896 5897 5897 5897
5902 5901 5901 5900 5900 5899 5899 5898 5898 5897 5896 5896 5895 5894 5894 5893 5893 5892 5892 5891 5891 5891 5890 5890 5890 5890 5891 5891 5891 5891 5891 5891 5892 5891 5892 5892 5892 5893 5893 5894 5894 5895 5895
5903 5903 5902 5902 5901 5900 5900 5899 5899 5898 5897 5896 5896 5895 5894 5893 5893 5892 5891 5891 5890 5890 5890 5889 5889 5889 5889 5889 5889 5889 5889 5889 5889 5890 5890 5890 5890 5891 5891 5891 5892 5892 5893
5905 5904 5903 5903 5902 5901 5901 5900 5899 5898 5897 5897 5896 5896 5895 5894 5893 5892 5891 5891 5890 5890 5889 5889 5888 5888 5888 5888 5888 5888 5888 5887 5887 5887 5888 5888 5888 5889 5889 5889 5889 5889 5890
5906 5905 5904 5904 5903 5902 5902 5901 5900 5899 5898 5898 5897 5896 5895 5894 5893 5892 5891 5890 5889 5888 5888 5888 5887 5887 5887 5886 5886 5886 5886 5885 5885 5885 5885 5886 5886 5886 5886 5886 5886 5887 5887
5906 5906 5905 5904 5903 5903 5902 5901 5900 5899 5899 5898 5897 5896 5895 5894 5893 5892 5891 5889 5888 5887 5887 5886 5886 5885 5885 5885 5884 5884 5884 5883 5883 5883 5883 5883 5883 5883 5883 5883 5883 5883 5883
5907 5906 5906 5905 5904 5903 5902 5901 5900 5900 5899 5898 5897 5896 5895 5894 5893 5892 5890 5889 5888 5887 5886 5885 5885 5884 5883 5883 5882 5882 5882 5881 5880 5880 5880 5880 5880 5880 5880 5879 5879 5879 5880
5907 5906 5906 5905 5904 5903 5903 5902 5901 5900 5899 5898 5897 5896 5895 5894 5893 5891 5890 5888 5887 5885 5884 5883 5882 5882 5881 5881 5880 5880 5879 5878 5878 5877 5877 5876 5876 5876 5876 5875 5875 5875 5875
5907 5906 5905 5905 5904 5903 5902 5902 5901 5900 5899 5898 5896 5895 5894 5893 5892 5890 5889 5887 5885 5884 5882 5881 5880 5879 5879 5878 5877 5877 5876 5876 5874 5874 5873 5873 5872 5872 5872 5871 5871 5871 5871
5906 5905 5905 5904 5903 5902 5902 5901 5900 5899 5898 5897 5896 5894 5893 5892 5890 5889 5888 5886 5884 5882 5880 5879 5878 5877 5876 5875 5874 5874 5873 5872 5871 5871 5870 5869 5869 5868 5868 5867 5867 5867 5867
5905 5904 5903 5903 5902 5901 5900 5900 5899 5898 5897 5896 5894 5893 5892 5891 5889 5887 5886 5884 5883 5880 5878 5877 5875 5874 5873 5872 5871 5870 5869 5868 5868 5867 5866 5865 5865 5864 5863 5863 5863 5862 5862
5903 5902 5902 5901 5900 5899 5899 5898 5897 5896 5895 5894 5893 5892 5891 5889 5888 5886 5884 5883 5881 5879 5876 5875 5873 5872 5871 5869 5868 5867 5866 5865 5864 5863 5862 5862 5861 5860 5859 5858 5858 5857 5857
5901 5901 5900 5899 5898 5898 5897 5896 5895 5895 5893 5893 5891 5890 5889 5888 5886 5884 5882 5880 5878 5876 5874 5872 5870 5869 5867 5866 5865 5864 5862 5861 5860 5859 5858 5857 5856 5855 5854 5854 5853 5853 5852